Tracking 19832 objects as of 24-Aug-2019
HD Live streaming from Space Station
objects crossing your sky now

THOR 3

Track THOR 3 now!
THOR 3 is classified as:


NORAD ID: 25358
Int'l Code: 1998-035A
Perigee: 36,194.8 km
Apogee: 36,210.2 km
Inclination: 7.2 °
Period: 1,457.0 minutes
Semi major axis: 42573 km
RCS: 23.5207 m2 (large)
Launch date: June 10, 1998
Source: Norway (NOR)
Launch site: AIR FORCE EASTERN TEST RANGE (AFETR)

14 Ku-band; Nordic region, central and eastern Europe.
aabbcc
Your satellite tracking list
Your tracking list is empty




NASA's NSSDC Master Catalog

Two Line Element Set (TLE):
1 25358U 98035A   19235.78760340 -.00000162 +00000-0 +00000-0 0  9993
2 25358 007.2093 055.3735 0001807 114.1220 091.9020 00.98831047077882
Source of the keplerian elements: AFSPC